Location: Karlsruhe
(49.0069°N, 8.4037°E)
Time: 05:50:00
(UTC+02:00)

ISS - Visible Passes

Search period start: 17 October 2021 00:00
Search period end: 27 October 2021 00:00
Orbit: 417 x 423 km, 51.6° (Epoch: 16 October)

Date Brightness Start Highest point End Pass type
(mag) Time Alt. Az. Time Alt. Az. Time Alt. Az.
22 Oct -1.4 07:01:47 10° SSW 07:04:30 22° SE 07:07:12 10° E visible
23 Oct -0.9 06:15:24 10° S 06:17:26 15° SE 06:19:30 10° E visible
24 Oct -2.9 07:03:20 10° SW 07:06:36 48° SSE 07:09:52 10° ENE visible
25 Oct -2.3 06:17:47 21° SSW 06:19:26 33° SE 06:22:31 10° E visible
26 Oct -1.5 05:32:49 22° SE 05:32:49 22° SE 05:35:03 10° E visible
26 Oct -3.8 07:05:49 12° WSW 07:08:51 88° NNW 07:12:14 10° ENE visible
